Location: The Saddle
(36.8333°N, 80.3417°W)
Time: 06:24:04
(UTC-04:00)

Courier 1B - Pass Details

Date: 18 September 2024
Orbit: 962 x 1208 km, 28.3° (Epoch: 05 October)

Event Time Altitude Azimuth Distance (km) Brightness Sun altitude
Rises 13:37:53 0° 230° (SW) 3,729 10.9 54.3°
Reaches altitude 10° 13:40:51 10° 220° (SW) 2,814 10.6 54.1°
Maximum altitude 13:46:40 30° 162° (SSE) 1,822 10.1 53.9°
Drops below altitude 10° 13:52:47 10° 104° (ESE) 2,975 10.2 53.6°
Sets 13:56:01 0° 94° (E) 3,977 10.6 53.4°
